Regional Weather Roundup
Issued by NWS Mt. Holly, NJ

Home | Current Version | Previous Version | Text Only | Print | Product List | Glossary On
Versions: 1 2 3 4 5 6 7 8 9 10 11 12 13 14 15 16 17 18 19 20 21 22 23 24 25 26 27 28 29 30 31 32 33 34 35 36 37 38 39 40 41 42 43 44 45 46 47 48 49 50
000
ASUS41 KPHI 211210
RWRPHI

REGIONAL WEATHER ROUNDUP
NATIONAL WEATHER SERVICE MOUNT HOLLY NJ
700 AM EST FRI NOV 21 2014

NOTE:  "FAIR" INDICATES FEW OR NO CLOUDS BELOW 12,000 FEET WITH NO
SIGNIFICANT WEATHER AND/OR OBSTRUCTIONS TO VISIBILITY.

 * = STATION DOES NOT REPORT PRECIPITATION (E.G. RAIN, SNOW, ETC.)
        OR FOG.

NJZ015>026-211300-
SOUTHERN NEW JERSEY

CITY           SKY/WX    TMP DP  RH WIND       PRES   REMARKS
POMONA         CLEAR     27  10  49 W16       30.25R WCI  15
6HR MIN TEMP:  27; 6HR MAX TEMP:  30;

RIO GRANDE*    CLEAR     30   9  40 NW20G30   30.27R WCI  18
MILLVILLE      CLEAR     29   8  41 W14       30.28R WCI  18
WRIGHTSTOWN    CLEAR     27   8  46 NW13G18   30.23R WCI  16
MOUNT HOLLY    CLEAR     28   8  43 W9        30.26R WCI  19
TRENTON        CLEAR     26   9  48 W7        30.23R WCI  18
6HR MIN TEMP:  26; 6HR MAX TEMP:  29;


$$
NJZ001>014-211300-
NORTHERN NEW JERSEY

CITY           SKY/WX    TMP DP  RH WIND       PRES   REMARKS
SUSSEX         CLEAR     23   9  55 VRB3      30.16R
ANDOVER*         N/A     23   9  55 VRB3      30.18R
MORRISTOWN     CLEAR     25  12  58 NW9       30.19  WCI  15
NEWARK         PTCLDY    24   8  50 W9        30.21R WCI  14
TETERBORO      CLEAR     27   9  46 W10       30.19R WCI  17
CALDWELL       CLEAR     25   9  50 W6        30.20R WCI  18
SOMERVILLE     CLEAR     26  10  50 VRB3      30.21R
ALLAIRE*       CLEAR     27   7  43 W10G17    30.21R WCI  17
TOMS RIVER*    CLEAR     27  10  50 W5        30.24R WCI  21

$$
PAZ043-044-047-054-055-060>062-066>071-211300-
EASTERN PENNSYLVANIA

CITY           SKY/WX    TMP DP  RH WIND       PRES   REMARKS
PHILADELPHIA   CLEAR     29   8  41 W14       30.28R WCI  18
6HR MIN TEMP:  28; 6HR MAX TEMP:  32;

NORTH PHILA    CLEAR     28   7  41 W9        30.27R WCI  19
BLUE BELL      CLEAR     28  12  50 CALM      30.24R
DOYLESTOWN     CLEAR     23  10  57 W8        30.23R WCI  14
QUAKERTOWN*    CLEAR     25  10  54 W8        30.22R WCI  16
POTTSTOWN      CLEAR     24   9  52 W6        30.26R WCI  17
LANCASTER      CLOUDY    22  10  60 W5        30.28R WCI  16
COATESVILLE    CLEAR     23  10  58 W14       30.25R WCI  11
READING        CLEAR     24   9  52 W7        30.26R WCI  16
6HR MIN TEMP:  24; 6HR MAX TEMP:  28;

ALLENTOWN      CLEAR     24   9  52 W9        30.22R WCI  14
6HR MIN TEMP:  23; 6HR MAX TEMP:  27;

MOUNT POCONO   PTCLDY    17   8  67 NW12G23   30.08R WCI   4
6HR MIN TEMP:  16; 6HR MAX TEMP:  19;

HAZLETON       PTCLDY    19  10  68 W8        30.17R WCI   9
WILKES BARRE   CLEAR     20   9  62 SW8       30.18R WCI  10

$$
DEZALL-MDZ008-012-015-019-020-211300-
DELAWARE AND EASTERN MARYLAND

CITY           SKY/WX    TMP DP  RH WIND       PRES   REMARKS
WILMINGTON     CLEAR     28   9  44 W9        30.29R WCI  19
6HR MIN TEMP:  27; 6HR MAX TEMP:  30;

DOVER          CLEAR     28  10  46 W13       30.28R WCI  18
GEORGETOWN     CLEAR     31   8  38 NW9G18    30.31R WCI  23
6HR MIN TEMP:  30; 6HR MAX TEMP:  34;

EASTON         CLEAR     32  14  47 NW16G24   30.32S WCI  21
PATUXENT       CLEAR     32  13  45 NW18      30.32R WCI  20
OCEAN CITY     CLEAR     25  17  72 W5        30.30R WCI  19
WALLOPS ISLAND FAIR      28  14  55 NW3       30.31R
CAMBRIDGE      CLEAR     34  14  44 NW15G29   30.31R WCI  24
SALISBURY      CLEAR     31  13  47 NW6       30.30R WCI  25

$$
PAZ001-021-NYZ056-072-MDZ011-DCZ001-211300-
OTHER NEARBY LOCATIONS

CITY           SKY/WX    TMP DP  RH WIND       PRES   REMARKS
HARRISBURG     CLOUDY    26   9  48 NW14      30.29R WCI  14
STATE COLLEGE  PTCLDY    19  10  68 W14       30.25R WCI   6
WILLIAMSPORT   CLEAR     23   9  55 W9        30.24R WCI  13
BINGHAMTON     CLEAR     16  11  80 W12       30.08R WCI   3
NEW YORK CITY  CLEAR     28   9  44 VRB7G17   30.21R WCI  21
BALTIMORE      PTCLDY    26  10  50 W7        30.32R WCI  18
WASHINGTON DC  PTCLDY    30   5  34 NW14G23   30.34R WCI  19

$$


USA.gov is the U.S. government's official web portal to all federal, state and local government web resources and services.